FW3691 Weather Reports


time (UTC)temp
F
wind
direction
speed
knots
gust
knots
rain 1hr
in
rain 24hr
in
rain mn
in
humidity
%
barometer
mb
20260507081600 46 348 0.0 0.9 0.00 0.00 0.00 83 1019.5
20260507080053 47 348 0.0 0.9 0.00 0.00 0.00 80 1019.4
20260507074555 48 348 0.0 0.9 0.00 0.00 0.00 77 1019.6
20260507073046 49 348 0.0 0.9 0.00 0.00 0.00 74 1019.5
20260507071544 49 348 0.0 1.7 0.00 0.00 0.00 73 1019.6
20260507070045 50 348 0.0 1.7 0.00 0.00 0.00 71 1019.6
20260507064541 50 355 0.0 1.7 0.00 0.00 0.00 69 1019.9
20260507063042 50 355 0.0 1.7 0.00 0.00 0.00 70 1019.9
20260507061539 50 360 0.0 0.9 0.00 0.00 0.00 70 1019.8
20260507060036 50 360 0.0 2.6 0.00 0.00 0.00 70 1019.6
20260507054534 50 348 0.0 2.6 0.00 0.00 0.00 70 1019.5
20260507053033 51 44 0.0 2.6 0.00 0.00 0.00 70 1019.4
20260507051531 51 44 0.9 1.7 0.00 0.00 0.00 69 1019.2
20260507050030 51 44 0.0 2.6 0.00 0.00 0.00 68 1019.2
20260507044527 52 42 0.9 1.7 0.00 0.00 0.00 68 1019.3
20260507043128 52 42 0.9 2.6 0.00 0.00 0.00 68 1019.2
20260507041526 52 25 0.9 2.6 0.00 0.00 0.00 67 1019.2
20260507040026 53 22 0.9 3.5 0.00 0.00 0.00 66 1019.4
20260507034532 53 5 0.9 2.6 0.00 0.00 0.00 66 1019.2
20260507033024 53 5 0.9 2.6 0.00 0.00 0.00 65 1019.1
20260507031523 54 32 0.9 3.5 0.00 0.00 0.00 65 1019.0
20260507030024 54 16 0.9 4.3 0.00 0.00 0.00 64 1018.9
20260507024523 55 12 0.9 5.2 0.00 0.00 0.00 63 1018.8
20260507023022 55 360 0.0 2.6 0.00 0.00 0.00 62 1018.7
20260507021523 55 30 0.0 2.6 0.00 0.00 0.00 61 1018.7
20260507020041 55 35 0.0 2.6 0.00 0.00 0.00 63 1018.4
20260507014521 55 35 0.9 2.6 0.00 0.00 0.00 62 1018.2
20260507013023 56 35 0.0 1.7 0.00 0.00 0.00 61 1018.1
20260507011534 57 36 0.9 3.5 0.00 0.00 0.00 58 1017.8
20260507010023 58 55 1.7 5.2 0.00 0.00 0.00 55 1017.7
20260507004519 59 55 1.7 5.2 0.00 0.00 0.00 55 1017.6
20260507003019 60 42 2.6 5.2 0.00 0.00 0.00 52 1017.4
20260507001544 61 49 3.5 7.8 0.00 0.00 0.00 51 1017.3
20260507000017 62 24 4.3 7.8 0.00 0.00 0.00 49 1017.2
20260506234516 62 53 3.5 10.4 0.00 0.00 0.00 50 1017.2
20260506233018 62 60 2.6 7.8 0.00 0.00 0.00 51 1017.1
20260506231517 63 63 3.5 7.8 0.00 0.00 0.00 53 1017.1
20260506230014 63 62 4.3 9.6 0.00 0.00 0.00 51 1016.8
20260506224516 62 146 5.2 11.3 0.00 0.00 0.00 51 1016.8
20260506223013 63 51 3.5 11.3 0.00 0.00 0.00 52 1016.4
20260506221512 64 40 6.1 12.2 0.00 0.00 0.00 52 1016.4
20260506220011 61 48 4.3 9.6 0.00 0.00 0.00 54 1016.4
20260506214509 62 17 4.3 11.3 0.00 0.00 0.00 54 1016.3
20260506213008 62 41 4.3 11.3 0.00 0.00 0.00 53 1016.4
20260506211507 61 38 5.2 11.3 0.00 0.00 0.00 52 1016.5
20260506210008 62 18 4.3 13.0 0.00 0.00 0.00 55 1016.5
20260506204503 61 19 4.3 8.7 0.00 0.00 0.00 56 1016.7
20260506203003 61 46 4.3 10.4 0.00 0.00 0.00 57 1017.0
20260506201503 61 355 4.3 11.3 0.00 0.00 0.00 58 1017.1
20260506200001 62 44 4.3 9.6 0.00 0.00 0.00 57 1017.2
20260506194605 63 28 4.3 10.4 0.00 0.00 0.00 55 1017.2
20260506193106 63 61 4.3 8.7 0.00 0.00 0.00 58 1017.1
20260506191556 62 38 5.2 12.2 0.00 0.00 0.00 58 1017.4
20260506190056 61 32 6.1 10.4 0.00 0.00 0.00 57 1017.7
20260506184554 61 21 4.3 8.7 0.00 0.00 0.00 58 1017.8
20260506183103 62 67 5.2 11.3 0.00 0.00 0.00 58 1017.9
20260506181557 61 10 5.2 10.4 0.00 0.00 0.00 59 1018.0
20260506180054 61 67 4.3 11.3 0.00 0.00 0.00 62 1018.1
20260506174550 61 74 3.5 9.6 0.00 0.00 0.00 57 1018.4
20260506173057 61 31 4.3 11.3 0.00 0.00 0.00 57 1018.6
20260506171546 60 76 4.3 13.0 0.00 0.00 0.00 56 1019.0
20260506170053 59 33 3.5 9.6 0.00 0.00 0.00 60 1019.5
20260506164555 59 51 7.0 10.4 0.00 0.00 0.00 59 1019.5
20260506163046 59 5 3.5 9.6 0.00 0.00 0.00 64 1019.1
20260506161543 59 38 5.2 10.4 0.00 0.00 0.00 60 1019.1
20260506160038 59 38 5.2 12.2 0.00 0.00 0.00 62 1018.8
20260506154533 57 46 2.6 9.6 0.00 0.00 0.00 64 1018.5
20260506153029 56 60 3.5 12.2 0.00 0.00 0.00 65 1018.2
20260506151539 54 53 2.6 13.0 0.00 0.00 0.00 68 1017.6
20260506150042 54 37 7.0 13.0 0.00 0.00 0.00 65 1017.6
20260506144531 53 37 3.5 9.6 0.00 0.00 0.00 69 1017.6
20260506143031 53 114 6.1 13.0 0.00 0.00 0.00 70 1017.6
20260506141530 51 57 7.8 13.9 0.00 0.00 0.00 72 1017.5
20260506140022 51 79 6.1 11.3 0.00 0.00 0.00 74 1017.7
20260506134521 50 78 8.7 14.8 0.00 0.00 0.00 76 1017.5
20260506133019 49 44 6.1 13.0 0.00 0.00 0.00 77 1017.6
20260506131517 49 51 3.5 11.3 0.00 0.00 0.00 79 1017.9
20260506130014 49 57 5.2 12.2 0.00 0.00 0.00 79 1017.3
20260506124512 48 53 4.3 12.2 0.00 0.00 0.00 80 1017.5
20260506123013 48 30 5.2 13.9 0.00 0.00 0.00 80 1017.5
20260506121511 48 34 5.2 13.0 0.00 0.00 0.00 79 1016.9
20260506120011 48 44 3.5 13.0 0.00 0.00 0.00 78 1016.8
20260506114501 48 36 4.3 9.6 0.00 0.00 0.00 78 1016.7
20260506113100 49 19 4.3 10.4 0.00 0.00 0.00 78 1016.7
20260506111557 49 348 3.5 10.4 0.00 0.00 0.00 77 1016.6
20260506110107 49 32 4.3 11.3 0.00 0.00 0.00 76 1016.4
20260506104606 49 11 4.3 10.4 0.00 0.00 0.00 76 1016.1
20260506103049 49 38 5.2 8.7 0.00 0.00 0.00 76 1015.6
20260506101547 49 38 3.5 9.6 0.00 0.00 0.00 77 1015.9
20260506100053 49 38 2.6 9.6 0.00 0.00 0.00 77 1015.5
20260506094544 49 49 2.6 9.6 0.00 0.00 0.00 76 1015.5
20260506093039 49 17 4.3 10.4 0.00 0.00 0.00 76 1014.8
20260506091537 49 25 4.3 9.6 0.00 0.00 0.00 76 1014.5
20260506090034 49 17 4.3 8.7 0.00 0.00 0.00 77 1013.8
20260506084607 49 15 4.3 7.8 0.00 0.00 0.00 77 1013.5
20260506083031 49 10 6.1 11.3 0.00 0.00 0.00 76 1013.5